Погода в Бангеде

Филиппины     17°36′05″N   120°37′06″E
темп.,
°C
ветер,
м/с
пор.,
м/с
влажн.,
%
обл.,
%
осадки,
мм/ч
давл.,
гПа
погр.,
м
14 июня, пн
пн1423:00+24ююз3693100 5.4 1012251
02:00+24в119475 7.4 101023
05:00+24в119439 0.3 101029
08:00+27ююв128096 0.3 1010472
11:00+29юз456859 0.1 1009913
14:00+29юз577145 0.9 1008860
17:00+27юз478192 4.5 1008539
20:00+25ю3589100 8.9 1009126
15 июня, вт
вт1523:00+25вюв119093 2.3 101040
02:00+24вюв1190100 2.7 100834
05:00+23вюв219199 1.6 100831
08:00+24вюв1289100 3.1 1010138
11:00+29юз4668100 0.0 1009970
14:00+29юз5769100 0.3 1008894
17:00+28ююз4677100 1.1 1008597
20:00+25ююв2288100 2.3 100950
16 июня, ср
ср1623:00+25вюв1189100 0.6 101120
02:00+24в119398 0.7 100927
05:00+24в1191100 0.0 100828
08:00+27ююв13768 0.0 1011479
11:00+30юз566828 0.0 10101031
14:00+30юз56685 0.0 1009906
17:00+28юз4679100 0.5 1009647
20:00+26ю2289100 2.1 101156
17 июня, чт
чт1723:00+25ююв229395 1.2 101239
02:00+24вюв119498 1.3 101027
05:00+23в119544 0.1 101027
08:00+27юв1279100 0.1 1011415
11:00+30юз456815 0.0 10111018
14:00+30юз556720 0.0 10101046
17:00+29юз457212 0.0 1009788
20:00+26ю228435 0.0 101148
18 июня, пт
пт1823:00+25вюв119125 0.0 101123
02:00+24вюв119316 0.1 101027
05:00+24вюв119311 0.1 100927
08:00+28ю247469 0.1 1010559
11:00+30юз567053 0.0 10101032
14:00+30юз56655 0.1 10091047
17:00+29юз46756 0.3 1008643
20:00+26ю23895 0.8 101079